This is the latest recevied weather packets stored in our database for station/object K3JSE-2. If no packets are shown the sender has not sent any weather packets the latest 10 day(s).
| Time | Temp. | Humidity | Pressure | Rain* | Wind** | Luminosity | Snow |
|---|---|---|---|---|---|---|---|
| 1778246827 | 12.22° C | 52% | 1014.8 hPa | 0 mm | - | - | - |
| 1778246557 | 11.67° C | 53% | 1014.8 hPa | 0 mm | - | - | - |
| 1778246298 | 11.67° C | 52% | 1014.8 hPa | 0 mm | - | - | - |
| 1778246058 | 11.67° C | 55% | 1014.8 hPa | 0 mm | - | - | - |
| 1778245783 | 11.67° C | 57% | 1014.8 hPa | 0 mm | - | - | - |
| 1778245522 | 11.11° C | 55% | 1014.9 hPa | 0 mm | - | - | - |
| 1778245248 | 11.11° C | 52% | 1014.8 hPa | 0 mm | - | - | - |
| 1778244993 | 11.11° C | 54% | 1014.8 hPa | 0 mm | - | - | - |
| 1778244743 | 11.11° C | 54% | 1014.7 hPa | 0 mm | - | - | - |
| 1778244453 | 10.56° C | 55% | 1014.7 hPa | 0 mm | - | - | - |
| 1778244173 | 10.56° C | 57% | 1014.7 hPa | 0 mm | - | - | - |
| 1778243933 | 10.56° C | 55% | 1014.8 hPa | 0 mm | - | - | - |
| 1778243658 | 10.56° C | 57% | 1014.9 hPa | 0 mm | - | - | - |
| 1778243363 | 10° C | 60% | 1014.9 hPa | 0 mm | - | - | - |
| 1778243098 | 10° C | 65% | 1014.8 hPa | 0 mm | - | - | - |
| 1778242813 | 9.44° C | 65% | 1014.7 hPa | 0 mm | - | - | - |
| 1778242558 | 9.44° C | 65% | 1014.7 hPa | 0 mm | - | - | - |
| 1778242308 | 8.89° C | 67% | 1014.6 hPa | 0 mm | - | - | - |
| 1778242032 | 8.89° C | 70% | 1014.6 hPa | 0 mm | - | - | - |
| 1778241783 | 8.33° C | 72% | 1014.6 hPa | 0 mm | - | - | - |
| 1778241493 | 7.78° C | 75% | 1014.7 hPa | 0 mm | - | - | - |
| 1778241243 | 7.78° C | 76% | 1014.7 hPa | 0 mm | - | - | - |
| 1778240983 | 7.22° C | 81% | 1014.7 hPa | 0 mm | - | - | - |
| 1778240703 | 5.56° C | 85% | 1014.8 hPa | 0 mm | - | - | - |
| 1778240453 | 5.56° C | 85% | 1014.7 hPa | 0 mm | - | - | - |
* Rain latest hour (hover to see other rain measurements)
** Current wind speed in m/s (hover to see current wind gust speed)